Regional Weather Roundup
Issued by NWS

Home | Current Version | Previous Version | Graphics & Text | Print | Product List | Glossary On
Versions: 1 2 3 4 5 6 7 8 9 10 11 12 13 14 15 16 17 18 19 20 21 22 23 24 25 26 27 28 29 30 31 32 33 34 35 36 37 38 39 40 41 42 43 44 45 46 47 48 49 50
000
ASUS43 KMPX 202110
RWRMN
WEATHER ROUNDUP FOR MINNESOTA
NATIONAL WEATHER SERVICE TWIN CITIES/CHANHASSEN MN
300 PM CST FRI JAN 20 2017


NOTE: "FAIR" INDICATES FEW OR NO CLOUDS BELOW 12,000 FEET WITH NO
SIGNIFICANT WEATHER AND/OR OBSTRUCTIONS TO VISIBILITY. N/A MEANS
CURRENT SKY AND/OR WEATHER CONDITIONS ARE NOT AVAILABLE.

MNZ060>063-068>070-202200-
   Twin Cities Metro

CITY           SKY/WX    TMP DP  RH WIND       PRES   REMARKS
TWIN CITIES    CLOUDY    36  34  92 SE9       29.54F FOG
ST PAUL        CLOUDY    36  36 100 SE7       29.56S FOG
CRYSTAL        CLOUDY    37  33  85 E7        29.53S FOG
BLAINE         CLOUDY    37  37 100 SE6       29.54S FOG
LAKEVILLE      CLOUDY    36  36 100 S6        29.55R FOG
EDEN PRAIRIE   CLOUDY    38  35  89 E7        29.53S FOG
SOUTH ST PAUL  CLOUDY    37  36  97 CALM      29.55S FOG
LAKE ELMO      CLOUDY    36  36 100 SE6       29.56S FOG
$$
MNZ001>005-007-008-013>017-022>024-027-028-202200-
   Northwest Minnesota

CITY           SKY/WX    TMP DP  RH WIND       PRES   REMARKS
BEMIDJI        CLOUDY    34  34  99 SE7       29.50S FOG     WCI  28
HALLOCK        CLOUDY    37  36  93 SE8       29.48R FOG
ROSEAU         LGT RAIN  37  34  87 SE6       29.50R
WARROAD        LGT RAIN  37  34  87 SE7       29.51S
THIEF RVR FALL CLOUDY    35  34  96 SE7       29.48F FOG     WCI  29
CROOKSTON      CLOUDY    34  34 100 SE8       29.48S FOG     WCI  27
FOSSTON        CLOUDY    36  36 100 SE8       29.48S
DETROIT LAKES  CLOUDY    34  34 100 SE10      29.48R FOG     WCI  26
MOORHEAD       CLOUDY    36  34  93 SE7       29.46S
PARK RAPIDS    FOG       35  32  88 SE9       29.48F VSB 3/4 WCI  28
MAHNOMEN       CLOUDY    36  33  91 SE9       29.47S
$$
MNZ006-009>011-018-025>026-202200-
   North Central Minnesota

CITY           SKY/WX    TMP DP  RH WIND       PRES   REMARKS
BAUDETTE       LGT RAIN  37  35  92 SE7       29.51R FOG
FLAG ISLAND    DRIZZLE   37  36  93 CALM      29.51S
INTL FALLS     LGT RAIN  37  34  89 SE6       29.54S
WASKISH        LGT RAIN  37  36  93 E3        29.51F
BIG FORK       LGT RAIN  36  34  93 SE5       29.53S
LONGVILLE      CLOUDY    36  34  93 SE7       29.51S FOG
GRAND RAPIDS   CLOUDY    36  35  96 SE7       29.55S FOG
CRANE LAKE     DRIZZLE   37  36  93 CALM      29.59R
ORR            FLURRIES  37  34  87 CALM      29.54R
COOK           LGT RAIN  37  36  93 SE3       29.57R
WALKER         DRIZZLE   35  34  96 SE3       29.50F
$$
MNZ012-019>021-037-202200-
   Northeast Minnesota

CITY           SKY/WX    TMP DP  RH WIND       PRES   REMARKS
DULUTH         LGT SNOW  34  33  96 E12       29.58R FOG     WCI  25
ELY            LGT RAIN  37  34  87 CALM      29.58R
HIBBING        LGT RAIN  34  34 100 SE9       29.56R FOG     WCI  27
EVELETH          N/A     37  36  95 E3        29.58R
DULUTH HARBOR  MIX PCPN  34  34 100 E13       29.61S WCI  25
TWO HARBORS    RAIN      37  32  81 E10       29.59R
SILVER BAY     LGT RAIN  36  36 100 NE7       29.60R
GRAND MARAIS     N/A     37  35  92 E3        29.64R
G MARAIS ARPRT CLOUDY    34  32  93 SE5       29.62R FOG     WCI  30
$$
MNZ029>031-032-039>041-046>048-054>057-064-202200-
   West Central Minnesota

CITY           SKY/WX    TMP DP  RH WIND       PRES   REMARKS
FERGUS FALLS   CLOUDY    36  36 100 SE13      29.49F
WHEATON        CLOUDY    41  41 100 E15       29.45S FOG
MORRIS         CLOUDY    36  34  93 SE10      29.45S FOG
ALEXANDRIA     CLOUDY    34  33  96 SE8       29.48F FOG     WCI  27
ELBOW LAKE     CLOUDY    34  34 100 SE9       29.46S FOG     WCI  26
WADENA         CLOUDY    34  34 100 SE8       29.49R FOG     WCI  27
GLENWOOD       FOG       34  34 100 E10       29.48F VSB 1/4 WCI  26
APPLETON       CLOUDY    36  36 100 E9        29.45S FOG
BENSON         CLOUDY    37  34  87 SE9       29.48S
ORTONVILLE     CLOUDY    36  34  93 SE10      29.43S FOG
MADISON        CLOUDY    37  37 100 SE13      29.44S FOG
WILLMAR        FOG       36  36 100 SE9       29.50S VSB 1/2
$$
MNZ033>034-036-042>043-049>051-058-059-202200-
   Central Minnesota

CITY           SKY/WX    TMP DP  RH WIND       PRES   REMARKS
ST CLOUD       FOG       34  34 100 SE6       29.53R VSB 1/4 WCI  29
SAUK CENTRE    CLOUDY    33  33 100 E7        29.50S FOG     WCI  27
PAYNESVILLE    FOG       34  35 100 E6        29.50S VSB 1   WCI  29
AITKIN         MIX PCPN  37  34  87 SE3       29.52S
PINE RIVER     CLOUDY    34  34 100 SE8       29.55F FOG     WCI  27
BRAINERD       CLOUDY    35  34  96 SE6       29.52F FOG     WCI  30
STAPLES        CLOUDY    34  34 100 SE5       29.50S FOG     WCI  30
LONG PRAIRIE   CLOUDY    34  32  93 E6        29.51R FOG     WCI  29
LITTLE FALLS   FOG       34  32  93 SE5       29.53S VSB 3/4 WCI  30
LITCHFIELD     FOG       36  36 100 E7        29.51S VSB 1/4
BUFFALO        CLOUDY    36  35  96 E3        29.54S FOG
MAPLE LAKE     CLOUDY    37  37 100 MISG      29.53S FOG
HUTCHINSON     FOG       35  36 100 E7        29.52S VSB 1/2 WCI  29
$$
MNZ037-044-045-052-053-202200-
   East Central Minnesota

CITY           SKY/WX    TMP DP  RH WIND       PRES   REMARKS
PRINCETON      FOG       37  36  93 E6        29.54R VSB 3/4
MORA           CLOUDY    34  32  93 SE5       29.56S FOG     WCI  30
CAMBRIDGE      FOG       37  36  93 E3        29.54R VSB 1
RUSH CITY      CLOUDY    36  34  93 SE5       29.56R
MOOSE LAKE     CLOUDY    36  36 100 E3        29.54S
HINCKLEY       CLOUDY    36  36 100 SE3       29.56R
CLOQUET        MIX PCPN  34  34 100 E7        29.57S VSB 1   WCI  28
MCGREGOR       CLOUDY    36  34  93 SE7       29.54S
$$
MNZ071>073-080-081-089-090-097-098-202200-
   Southwest Minnesota

CITY           SKY/WX    TMP DP  RH WIND       PRES   REMARKS
MONTEVIDEO     CLOUDY    36  36 100 S8        29.48S FOG
GRANITE FALLS  CLOUDY    37  37  97 E12       29.49R FOG
CANBY          CLOUDY    38  38  98 CALM      29.45R FOG
MARSHALL       CLOUDY    39  37  92 SE12      29.46R
REDWOOD FALLS  CLOUDY    36  34  92 SE10      29.50R FOG
OLIVIA         FOG       34  34 100 SE7       29.49S VSB 1/4 WCI  28
PIPESTONE      DRZL/FOG  37  37 100 S12       29.42S VSB<1/4
WINDOM         CLOUDY    37  37 100 SE9       29.48S FOG
WORTHINGTON    FOG       37  37 100 S12       29.46S VSB 3/4
JACKSON        CLOUDY    34  34 100 SE7       29.49R FOG     WCI  28
TRACY          CLOUDY    40  39  97 S7        29.46S
SLAYTON        CLOUDY    36  36 100 SE13      29.46S FOG
$$
MNZ065>067-074>077-082>085-091>093-202200-
   South Central Minnesota

CITY           SKY/WX    TMP DP  RH WIND       PRES   REMARKS
MANKATO        CLOUDY    36  35  96 SE10      29.54R FOG
NEW ULM        CLOUDY    36  36 100 SE7       29.52R FOG
ST JAMES       CLOUDY    37  36  93 SE6       29.52S
FAIRMONT       CLOUDY    36  36 100 SE6       29.51F FOG
GLENCOE        FOG       37  37 100 E6        29.51S VSB 1/2
FARIBAULT      CLOUDY    36  36 100 SE8       29.55R FOG
OWATONNA       FOG       36  34  93 SE5       29.55R VSB 3/4
WASECA         CLOUDY    36  36 100 SE7       29.56R FOG
ALBERT LEA     FOG       36  36 100 S5        29.53S VSB 1/2
$$
MNZ078>079-086>088-094>096-202200-
   Southeast Minnesota

CITY           SKY/WX    TMP DP  RH WIND       PRES   REMARKS
ROCHESTER      CLOUDY    34  34 100 SE8       29.55R FOG     WCI  27
RED WING       FOG       36  36 100 SE6       29.57R VSB 1/4
STANTON        CLOUDY    38  34  87 SE5       29.54S
DODGE CENTER   FOG       34  34 100 CALM      29.54R VSB<1/4
WINONA         FOG       36  36 100 S3        29.60R VSB 1
AUSTIN         FOG       34  34 100 SE3       29.55R VSB<1/4
PRESTON        FOG       34  34  98 SE5       29.57R VSB 3/4 WCI  30
$$
ABBREVIATIONS USED IN REMARKS
   TC - TEMPERATURES IN CELSIUS
  WCI - WIND CHILL INDEX
   HX - HEAT INDEX
  VSB - VISIBILITY
$$




USA.gov is the U.S. government's official web portal to all federal, state and local government web resources and services.